Location: Newark
(25.4800°N, 85.7200°E)
Time: 05:31:03
(UTC+00:00)

Vanguard 1 Rocket - Pass Details

Date: 21 August 2019
Orbit: 652 x 4224 km, 34.3° (Epoch: 13 September)

Event Time Altitude Azimuth Distance (km) Brightness Sun altitude
Rises 19:51:37 0° 254° (WSW) 3,137 - -46.4°
Reaches altitude 10° 19:54:04 10° 258° (WSW) 2,093 - -46.1°
Maximum altitude 19:58:28 62° 339° (NNW) 737 - -45.5°
Drops below altitude 10° 20:03:18 10° 61° (ENE) 2,302 - -44.9°
Exits shadow 20:03:33 - 61° (ENE) 2,406 10.1 -44.9°
Sets 20:06:08 0° 65° (ENE) 3,492 11.0 -44.5°
